Weather Roundup
Issued by NWS

Home | Current Version | Previous Version | Text Only | Print | Product List | Glossary On
Versions: 1 2 3 4 5 6 7 8 9 10 11 12 13 14 15 16 17 18 19 20 21 22 23 24 25 26 27 28 29 30 31 32 33 34 35 36 37 38 39 40 41 42 43 44 45 46 47 48 49 50
000
NZUS93 KARX 271110
HRRWXR

CURRENT HOURLY OBSERVATIONS ACROSS
MUCH OF THE UPPER MISSISSIPPI VALLEY
NATIONAL WEATHER SERVICE LA CROSSE WI
500 AM CST FRI FEB 27 2015


...SOUTHEAST MINNESOTA...


CITY           SKY/WX    TMP DP  RH WIND       PRES   REMARKS
ROCHESTER      PTCLDY   -13 -17  82 W12       30.47R WCI -33
ROCHESTER/MAYO FAIR      -6 -12  78 W5        30.49R WCI -17
WINONA         CLEAR     -9 -15  77 CALM      30.55R
AUSTIN         PTCLDY   -11 -15  84 CALM      30.49R
ALBERT LEA     PTCLDY   -11 -15  84 CALM      30.49R
DODGE CENTER   PTCLDY   -15 -18  84 W3        30.46R
PRESTON        PTCLDY   -10 -15  78 W7        30.48R WCI -24
OWATONNA       PTCLDY   -17 -22  76 SW3       30.50R
FARIBAULT      PTCLDY   -15 -18  84 CALM      30.51R
$$

...ELSEWHERE IN MINNESOTA...


CITY           SKY/WX    TMP DP  RH WIND       PRES   REMARKS
MINNEAPOLIS    CLEAR     -3  -9  75 SW6       30.52R WCI -15
INTNL FALLS    PTCLDY   -18 -22  82 SW3       30.36S
DULUTH         PTCLDY    -9 -15  75 W7        30.36R WCI -24
RED WING       CLEAR    -13 -18  77 CALM      30.52R
REDWOOD FALLS  CLEAR     -9 -14  78 W7        30.53S WCI -24
MANKATO        CLEAR     -9 -18  64 W7        30.51S WCI -24
FAIRMONT       PTCLDY    -8 -18  59 W6        30.49R WCI -21
$$

...SOUTHWEST WISCONSIN...


CITY           SKY/WX    TMP DP  RH WIND       PRES   REMARKS
LA CROSSE      CLEAR     -7 -13  75 CALM      30.53R
PRAIRIE DU CHI FAIR     -13 -19  74 CALM      30.56R
BOSCOBEL       CLEAR    -15 -20  78 SW5       30.55R WCI -27
LONE ROCK      CLEAR    -11 -16  78 W6        30.52R WCI -25
PLATTEVILLE    PTCLDY   -10 -14  80 W5        30.49S WCI -21
FORT MC COY    CLEAR    -18 -24  73 CALM      30.51R
CAMP DOUGLAS   CLEAR     -5 -11  76 W5        30.48R WCI -16
VIROQUA        FAIR      -8 -11  84 W5        30.45R WCI -19
WIS DELLS      CLEAR     -8 -13  77 CALM      30.47R
$$

...ELSEWHERE IN WISCONSIN...


CITY           SKY/WX    TMP DP  RH WIND       PRES   REMARKS
MILWAUKEE      CLEAR      2  -9  60 W8        30.47R WCI -12
MADISON        CLEAR     -3 -10  72 W3        30.48R
GREEN BAY      CLEAR     -1  -8  72 W9        30.45R WCI -16
EAU CLAIRE     CLEAR     -8 -15  71 SW5       30.48R WCI -19
BLACK RVR FLS  FAIR     -20 -27  70 CALM      30.49S
MEDFORD        CLEAR     -9 -14  78 CALM      30.38R
WAUSAU         CLEAR     -6 -13  71 NW8       30.40R WCI -21
WIS RAPIDS     CLEAR    -12 -18  74 CALM      30.46R
MARSHFIELD     CLEAR    -10 -16  74 NW5       30.42R WCI -22
RICE LAKE      FAIR      -9 -15  75 CALM      30.47R
$$

...NORTHEAST IOWA...


CITY           SKY/WX    TMP DP  RH WIND       PRES   REMARKS
DECORAH        PTCLDY   -11 -17  77 CALM      30.49S
MASON CITY     PTCLDY   -16 -20  82 W6        30.52S WCI -31
CHARLES CITY   PTCLDY   -17 -24  70 NW7       30.52S WCI -33
OELWEIN        FAIR     -17 -24  70 NW6       30.52S WCI -31
$$

...ELSEWHERE IN IOWA...


CITY           SKY/WX    TMP DP  RH WIND       PRES   REMARKS
DES MOINES     CLEAR     -6 -12  75 NW3       30.58S
IOWA CITY      CLEAR     -9 -13  83 NW5       30.59R WCI -20
FORT DODGE     PTCLDY   -13 -20  70 CALM      30.55S
$$

...NORTHERN ILLINOIS...


CITY           SKY/WX    TMP DP  RH WIND       PRES   REMARKS
CHICAGO-OHARE  CLEAR     -1 -10  65 NW9       30.48R WCI -16
CHICAGO-MIDWAY CLEAR      2  -6  69 W3        30.50R
MOLINE         PTCLDY    -9 -14  78 W6        30.56R WCI -22
ROCKFORD       CLEAR    -11 -17  75 CALM      30.52R
PEORIA         CLEAR     -5 -11  75 NW3       30.56R
$$

NOTE: "FAIR" INDICATES FEW OR NO CLOUDS BELOW 12,000 FEET WITH NO
SIGNIFICANT WEATHER AND/OR OBSTRUCTIONS TO VISIBILITY. WIND
SPEEDS ARE IN MILES-PER-HOUR.



USA.gov is the U.S. government's official web portal to all federal, state and local government web resources and services.